Weather in Kupros

Russia / Perm Krai     58°59′27″N   55°31′09″E
temp.,
°C
wind,
m/s
gust,
m/s
humid.,
%
clouds,
%
prec.,
mm/h
press.,
hPa
HPBL,
m
25 february, thu
thu2523:00−27nnw239715 0.0 103244
02:00−28nw12980 0.0 103119
05:00−28wnw12970 0.0 103119
08:00−29w12980 0.0 103119
11:00−24wsw11920 0.0 1030167
14:00−18s23810 0.0 1028387
17:00−18s24887 0.0 1027399
20:00−23sse23978 0.0 102626
26 february, fri
fri2623:00−24sse239616 0.0 102665
02:00−26sse249872 0.0 102573
05:00−27sse239540 0.0 102549
08:00−28se25950 0.0 1024103
11:00−23se36900 0.0 1023286
14:00−19se378948 0.0 1021432
17:00−17sse489074 0.0 1019545
20:00−19se31196100 0.0 1017413
27 february, sat
sat2723:00−19se31195100 0.1 1016507
02:00−19se41196100 0.0 1012503
05:00−18se51493100 0.1 1010536
08:00−18ese51391100 0.0 1007517
11:00−16e51184100 0.0 1006464
14:00−16e51089100 0.0 1005502
17:00−16e51192100 0.3 1005588
20:00−17e51292100 0.2 1006652
28 february, sun
sun2823:00−18e51191100 0.3 1007607
02:00−18e41091100 0.0 1007536
05:00−18ene4993100 0.1 1008508
08:00−19ene4995100 0.1 1008441
11:00−17ene4791100 0.2 1009496
14:00−15ene3788100 0.1 1010588
17:00−14ne3690100 0.2 1011589
20:00−16nne389699 0.1 1013277
1 march, mon
mon123:00−18ne239899 0.1 101567
02:00−21ene229889 0.0 101720
05:00−23ene119657 0.0 101920
08:00−24nnw11960 0.0 102020
11:00−19nw12890 0.0 1020231
14:00−14w128263 0.0 1019361
17:00−14w238866 0.0 1018310
20:00−18ssw22940 0.0 101720